Location: Poughquag
(41.6090°N, 73.6820°W)
Time: 12:43:01
(UTC-04:00)

Tiros 1 - Pass Details

Date: 03 June 2020
Orbit: 630 x 664 km, 48.4° (Epoch: 06 July)

Event Time Altitude Azimuth Distance (km) Brightness Sun altitude
Rises 13:12:57 0° 258° (WSW) 2,974 10.7 70.4°
Reaches altitude 10° 13:15:21 10° 264° (W) 2,059 10.0 70.3°
Maximum altitude 13:20:00 52° 341° (NNW) 805 8.3 70.0°
Drops below altitude 10° 13:24:36 10° 58° (ENE) 2,042 9.7 69.7°
Sets 13:26:59 0° 64° (ENE) 2,948 10.4 69.5°
